Retour au catalogue

STARLINK-37185

ActifCommunicationsVLEO
NORAD 68340·PAYLOAD·🇺🇸 United States

Lancé Mar 22, 2026 depuis Cape Canaveral Space Force Station

Loading…

Prochains Passages (prochaines 24 heures)

TLE

FraisSource: CelesTrak SupGP

Époque: Sep 15, 2026, 02:51 UTC

1 68340C 26059V   26258.11923611 -.00042582  00000+0 -12580-2 0  2588
2 68340  53.1584 180.8524 0001446  74.6071 299.1781 15.34412701    13

Suivez STARLINK-37185 en temps réel avec AllMySat

Download on the App Store